FW7399 Weather Reports


time (UTC)temp
F
wind
direction
speed
knots
gust
knots
rain 1hr
in
rain 24hr
in
rain mn
in
humidity
%
barometer
mb
20260507072903 37 52 4.3 4.3 0.00 0.00 0.00 69 1014.6
20260507072403 37 51 4.3 5.2 0.00 0.00 0.00 69 1014.6
20260507071903 37 46 5.2 7.8 0.00 0.00 0.00 69 1014.6
20260507071403 38 37 4.3 5.2 0.00 0.00 0.00 69 1014.9
20260507070903 38 44 4.3 4.3 0.00 0.00 0.00 68 1014.8
20260507070403 38 43 4.3 7.0 0.00 0.00 0.00 67 1015.0
20260507065903 39 21 4.3 7.8 0.00 0.00 0.00 66 1015.0
20260507065402 40 38 4.3 5.2 0.00 0.00 0.00 66 1015.0
20260507064902 40 133 1.7 6.1 0.00 0.00 0.00 64 1014.9
20260507064402 39 133 4.3 6.1 0.00 0.00 0.00 64 1014.9
20260507063902 39 140 4.3 6.1 0.00 0.00 0.00 65 1015.0
20260507063402 38 134 2.6 2.6 0.00 0.00 0.00 66 1015.0
20260507062403 38 134 1.7 2.6 0.00 0.00 0.00 67 1015.0
20260507061903 38 134 1.7 2.6 0.00 0.00 0.00 67 1015.2
20260507061402 38 134 1.7 2.6 0.00 0.00 0.00 66 1015.2
20260507060902 38 134 1.7 2.6 0.00 0.00 0.00 65 1015.3
20260507060403 39 134 1.7 2.6 0.00 0.00 0.00 64 1015.3
20260507055903 39 134 1.7 2.6 0.00 0.00 0.00 64 1015.3
20260507054902 39 134 1.7 2.6 0.00 0.00 0.00 63 1015.2
20260507053903 40 134 0.9 2.6 0.00 0.00 0.00 62 1015.1
20260507053402 40 134 2.6 2.6 0.00 0.00 0.00 61 1015.1
20260507052904 40 134 3.5 6.1 0.00 0.00 0.00 62 1015.2
20260507052403 39 134 4.3 6.1 0.00 0.00 0.00 62 1015.1
20260507051903 39 121 3.5 4.3 0.00 0.00 0.00 63 1015.0
20260507051403 39 121 4.3 6.1 0.00 0.00 0.00 62 1015.1
20260507050903 39 114 5.2 7.0 0.00 0.00 0.00 63 1015.1
20260507050403 39 122 4.3 7.0 0.00 0.00 0.00 63 1015.1
20260507045403 40 109 4.3 5.2 0.00 0.00 0.00 62 1015.1
20260507044902 40 109 4.3 7.8 0.00 0.00 0.00 61 1015.3
20260507044403 41 104 4.3 7.0 0.00 0.00 0.00 61 1015.3
20260507043403 41 101 6.1 7.8 0.00 0.00 0.00 60 1015.4
20260507042903 42 101 6.1 7.0 0.00 0.00 0.00 59 1015.4
20260507042403 42 89 3.5 6.1 0.00 0.00 0.00 58 1015.4
20260507041903 42 80 4.3 7.0 0.00 0.00 0.00 58 1015.5
20260507041403 42 88 5.2 7.0 0.00 0.00 0.00 57 1015.5
20260507040902 43 97 6.1 7.0 0.00 0.00 0.00 56 1015.5
20260507040402 43 95 6.1 7.8 0.00 0.00 0.00 55 1015.6
20260507035403 43 87 5.2 7.8 0.00 0.00 0.00 55 1015.7
20260507034902 43 88 5.2 7.8 0.00 0.00 0.00 54 1015.8
20260507034403 43 81 5.2 7.0 0.00 0.00 0.00 53 1015.9
20260507033903 44 76 4.3 7.0 0.00 0.00 0.00 54 1015.9
20260507033403 44 69 2.6 4.3 0.00 0.00 0.00 53 1016.0
20260507032902 44 69 2.6 6.1 0.00 0.00 0.00 53 1016.1
20260507032403 44 85 5.2 7.0 0.00 0.00 0.00 54 1016.0
20260507031903 43 81 2.6 6.1 0.00 0.00 0.00 55 1016.0
20260507031403 43 64 2.6 2.6 0.00 0.00 0.00 54 1016.0
20260507030903 44 24 1.7 2.6 0.00 0.00 0.00 53 1016.0
20260507030402 44 24 1.7 2.6 0.00 0.00 0.00 53 1016.0
20260507025902 44 24 1.7 2.6 0.00 0.00 0.00 53 1016.2
20260507025402 44 24 1.7 2.6 0.00 0.00 0.00 52 1016.2
20260507024902 44 24 0.9 1.7 0.00 0.00 0.00 52 1016.2
20260507024403 45 24 0.9 2.6 0.00 0.00 0.00 52 1016.3
20260507023902 45 24 0.9 1.7 0.00 0.00 0.00 51 1016.2
20260507022402 46 24 1.7 2.6 0.00 0.00 0.00 49 1016.1
20260507021902 47 24 0.9 1.7 0.00 0.00 0.00 48 1016.0
20260507021404 47 24 0.9 1.7 0.00 0.00 0.00 48 1016.0
20260507020902 47 24 0.9 1.7 0.00 0.00 0.00 47 1016.0
20260507020402 47 24 0.9 0.9 0.00 0.00 0.00 47 1015.9
20260507015902 48 24 0.9 2.6 0.00 0.00 0.00 46 1015.9
20260507015402 48 24 1.7 2.6 0.00 0.00 0.00 46 1015.8
20260507014903 48 24 2.6 2.6 0.00 0.00 0.00 46 1015.9
20260507013903 49 0 1.7 2.6 0.00 0.00 0.00 45 1016.0
20260507013403 49 0 2.6 4.3 0.00 0.00 0.00 45 1015.9
20260507012903 49 0 2.6 4.3 0.00 0.00 0.00 44 1015.9
20260507012403 49 357 4.3 5.2 0.00 0.00 0.00 44 1015.9
20260507011903 50 1 2.6 6.1 0.00 0.00 0.00 44 1015.8
20260507011402 50 355 5.2 7.0 0.00 0.00 0.00 43 1015.8
20260507010403 50 357 4.3 10.4 0.00 0.00 0.00 43 1015.8
20260507005903 51 359 4.3 7.8 0.00 0.00 0.00 43 1015.8
20260507005402 51 348 6.1 10.4 0.00 0.00 0.00 42 1015.8
20260507004903 52 344 7.8 13.0 0.00 0.00 0.00 40 1015.8
20260507004402 52 298 7.8 10.4 0.00 0.00 0.00 40 1015.8
20260507003903 52 277 7.0 10.4 0.00 0.00 0.00 40 1015.8
20260507003402 52 289 7.8 10.4 0.00 0.00 0.00 40 1015.8
20260507002903 52 290 7.0 10.4 0.00 0.00 0.00 40 1015.7
20260507002402 52 296 7.8 10.4 0.00 0.00 0.00 40 1015.7
20260507001903 52 300 8.7 12.2 0.00 0.00 0.00 40 1015.8
20260507001403 52 314 7.8 10.4 0.00 0.00 0.00 40 1015.9
20260507000405 52 279 6.1 12.2 0.00 0.00 0.00 40 1016.0
20260506235902 52 293 7.0 8.7 0.00 0.00 0.00 41 1016.0
20260506235403 52 289 6.1 10.4 0.00 0.00 0.00 42 1016.0
20260506234902 52 282 7.0 10.4 0.00 0.00 0.00 41 1016.1
20260506234403 52 291 9.6 11.3 0.00 0.00 0.00 40 1016.1
20260506233403 52 293 8.7 13.9 0.00 0.00 0.00 41 1016.1
20260506232903 52 303 12.2 13.9 0.00 0.00 0.00 40 1016.1
20260506232402 52 301 10.4 13.9 0.00 0.00 0.00 41 1016.1
20260506231903 52 307 12.2 15.6 0.00 0.00 0.00 41 1016.2
20260506231403 52 325 7.8 12.2 0.00 0.00 0.00 41 1016.2
20260506230902 52 290 7.8 13.9 0.00 0.00 0.00 41 1016.2
20260506230402 51 313 10.4 12.2 0.00 0.00 0.00 42 1016.3
20260506225903 51 294 11.3 14.8 0.00 0.00 0.00 41 1016.2
20260506225403 52 297 11.3 14.8 0.00 0.00 0.00 41 1016.2
20260506224903 52 320 12.2 15.6 0.00 0.00 0.00 41 1016.3
20260506224403 51 307 8.7 12.2 0.00 0.00 0.00 41 1016.4
20260506223903 51 331 10.4 13.0 0.00 0.00 0.00 41 1016.4
20260506222903 51 327 11.3 15.6 0.00 0.00 0.00 41 1016.5
20260506222403 51 315 12.2 15.6 0.00 0.00 0.00 41 1016.5
20260506221903 51 305 12.2 17.4 0.00 0.00 0.00 41 1016.6
20260506221402 52 310 15.6 20.9 0.00 0.00 0.00 40 1016.6
20260506220902 52 300 10.4 17.4 0.00 0.00 0.00 41 1016.5
20260506220403 51 292 10.4 17.4 0.00 0.00 0.00 41 1016.6
20260506215403 52 289 13.9 17.4 0.00 0.00 0.00 41 1016.6
20260506214403 51 291 10.4 14.8 0.00 0.00 0.00 41 1016.9
20260506213903 51 315 11.3 19.1 0.00 0.00 0.00 43 1016.9
20260506212903 51 313 13.9 20.0 0.00 0.00 0.00 41 1016.9
20260506212402 51 317 13.9 17.4 0.00 0.00 0.00 42 1017.0
20260506211903 51 318 9.6 17.4 0.00 0.00 0.00 42 1017.1
20260506211403 51 317 11.3 17.4 0.00 0.00 0.00 42 1017.2
20260506210902 51 299 17.4 22.6 0.00 0.00 0.00 41 1017.3
20260506210403 51 300 12.2 18.2 0.00 0.00 0.00 41 1017.4
20260506205903 51 272 12.2 22.6 0.00 0.00 0.00 41 1017.4
20260506205403 51 285 12.2 17.4 0.00 0.00 0.00 42 1017.4
20260506204403 51 294 13.0 21.7 0.00 0.00 0.00 41 1017.7
20260506203903 52 290 14.8 19.1 0.00 0.00 0.00 41 1017.7
20260506203403 51 301 10.4 18.2 0.00 0.00 0.00 42 1017.9
20260506201403 50 287 15.6 22.6 0.00 0.00 0.00 42 1018.0
20260506200903 50 284 15.6 20.9 0.00 0.00 0.00 43 1017.9
20260506200402 50 293 12.2 17.4 0.00 0.00 0.00 43 1018.1
20260506195903 51 298 11.3 19.1 0.00 0.00 0.00 43 1018.1
20260506194903 49 290 14.8 19.1 0.00 0.00 0.00 44 1018.2
20260506194403 49 283 13.9 17.4 0.00 0.00 0.00 43 1018.2
20260506193902 49 286 12.2 20.0 0.00 0.00 0.00 45 1018.2
20260506193403 48 291 13.9 22.6 0.00 0.00 0.00 45 1018.2
20260506192903 48 295 11.3 17.4 0.00 0.00 0.00 45 1018.3
20260506191902 50 297 14.8 20.0 0.00 0.00 0.00 43 1018.6
20260506191403 50 290 14.8 20.9 0.00 0.00 0.00 44 1018.5
20260506190903 48 286 10.4 20.9 0.00 0.00 0.00 45 1018.6
20260506190402 48 289 13.0 17.4 0.00 0.00 0.00 46 1018.6
20260506185903 48 302 15.6 20.0 0.00 0.00 0.00 45 1018.7
20260506185403 48 259 13.9 20.0 0.00 0.00 0.00 46 1018.6
20260506184903 47 298 13.9 19.1 0.00 0.00 0.00 46 1018.7
20260506184403 48 316 10.4 18.2 0.00 0.00 0.00 47 1018.9
20260506183902 48 324 17.4 22.6 0.00 0.00 0.00 47 1018.9
20260506183403 47 320 17.4 22.6 0.00 0.00 0.00 46 1018.9
20260506182903 48 309 14.8 18.2 0.00 0.00 0.00 47 1018.8
20260506181903 46 318 13.0 22.6 0.00 0.00 0.00 49 1018.8
20260506181403 47 315 18.2 20.9 0.00 0.00 0.00 48 1018.8
20260506180403 47 326 14.8 18.2 0.00 0.00 0.00 47 1018.8
20260506175403 47 323 11.3 19.1 0.00 0.00 0.00 48 1018.9
20260506174902 47 313 15.6 20.9 0.00 0.00 0.00 47 1019.0
20260506174403 47 306 13.9 19.1 0.00 0.00 0.00 48 1018.9
20260506173403 46 307 14.8 19.1 0.00 0.00 0.00 48 1019.0
20260506172903 46 300 14.8 20.9 0.00 0.00 0.00 49 1019.1
20260506171903 45 290 14.8 20.9 0.00 0.00 0.00 48 1019.2
20260506171403 46 311 17.4 22.6 0.00 0.00 0.00 49 1019.0
20260506170902 45 313 13.9 21.7 0.00 0.00 0.00 50 1019.1
20260506165902 45 311 13.0 17.4 0.00 0.00 0.00 51 1019.2
20260506165403 45 296 13.9 20.0 0.00 0.00 0.00 51 1019.1
20260506164903 45 291 14.8 19.1 0.00 0.00 0.00 50 1019.1
20260506164402 45 305 18.2 22.6 0.00 0.00 0.00 50 1019.1
20260506163903 45 299 15.6 19.1 0.00 0.00 0.00 50 1019.1
20260506163403 45 294 14.8 21.7 0.00 0.00 0.00 50 1019.1
20260506162903 44 317 13.9 21.7 0.00 0.00 0.00 51 1019.1
20260506162402 44 288 13.9 20.9 0.00 0.00 0.00 51 1019.1
20260506161903 44 294 13.9 18.2 0.00 0.00 0.00 51 1019.1
20260506161403 45 323 16.5 20.9 0.00 0.00 0.00 50 1019.1
20260506160403 44 304 13.9 19.1 0.00 0.00 0.00 53 1019.1
20260506155903 44 329 14.8 20.0 0.00 0.00 0.00 52 1019.2
20260506155402 44 287 10.4 19.1 0.00 0.00 0.00 53 1019.1
20260506154903 44 304 15.6 20.0 0.00 0.00 0.00 52 1019.2
20260506154403 44 324 13.9 19.1 0.00 0.00 0.00 53 1019.2
20260506153902 44 300 17.4 22.6 0.00 0.00 0.00 52 1019.2
20260506153403 44 306 13.9 22.6 0.00 0.00 0.00 52 1019.2
20260506152902 44 302 14.8 21.7 0.00 0.00 0.00 53 1019.1
20260506152403 44 305 13.9 19.1 0.00 0.00 0.00 54 1019.2
20260506151903 44 300 12.2 15.6 0.00 0.00 0.00 54 1019.2
20260506151404 43 315 11.3 18.2 0.00 0.00 0.00 56 1019.4
20260506150903 43 305 12.2 17.4 0.00 0.00 0.00 55 1019.3
20260506150403 43 310 14.8 20.9 0.00 0.00 0.00 55 1019.3
20260506145903 43 298 12.2 17.4 0.00 0.00 0.00 57 1019.3
20260506144903 43 316 13.9 17.4 0.00 0.00 0.00 54 1019.2
20260506144403 43 287 13.9 18.2 0.00 0.00 0.00 54 1019.0
20260506143402 42 325 10.4 15.6 0.00 0.00 0.00 59 1019.1
20260506142402 42 312 12.2 15.6 0.00 0.00 0.00 59 1019.1
20260506141902 42 321 13.9 17.4 0.00 0.00 0.00 60 1019.1
20260506141403 42 305 11.3 17.4 0.00 0.00 0.00 59 1019.1
20260506140903 41 313 10.4 14.8 0.00 0.00 0.00 61 1019.0
20260506140403 41 306 11.3 14.8 0.00 0.00 0.00 60 1018.9
20260506135902 41 322 7.8 10.4 0.00 0.00 0.00 63 1018.8
20260506135404 41 318 6.1 10.4 0.00 0.00 0.00 62 1018.8
20260506134903 41 282 7.8 11.3 0.00 0.00 0.00 63 1018.9
20260506134402 40 317 7.8 10.4 0.00 0.00 0.00 63 1019.0
20260506132402 40 308 8.7 10.4 0.00 0.00 0.00 62 1019.2
20260506131903 40 312 9.6 12.2 0.00 0.00 0.00 62 1019.1
20260506131403 40 321 7.8 10.4 0.00 0.00 0.00 65 1019.0
20260506130903 39 327 7.0 10.4 0.00 0.00 0.00 65 1018.9
20260506130403 39 315 8.7 10.4 0.00 0.00 0.00 67 1019.0
20260506125903 39 306 7.8 10.4 0.00 0.00 0.00 70 1019.0
20260506125403 38 301 6.1 7.8 0.00 0.00 0.00 71 1018.9
20260506124403 38 282 1.7 2.6 0.00 0.00 0.00 74 1018.5
20260506123903 37 282 1.7 2.6 0.00 0.00 0.00 75 1018.5
20260506123403 37 282 1.7 2.6 0.00 0.00 0.00 76 1018.5
20260506122903 37 282 1.7 2.6 0.00 0.00 0.00 76 1018.5
20260506122403 37 282 1.7 2.6 0.00 0.00 0.00 76 1018.5
20260506121403 36 282 5.2 7.0 0.00 0.00 0.00 76 1018.4
20260506120403 36 287 6.1 7.8 0.00 0.00 0.00 76 1018.3
20260506115903 36 284 5.2 7.0 0.00 0.00 0.00 76 1018.2
20260506115403 35 282 5.2 7.0 0.00 0.00 0.00 75 1018.1
20260506114903 35 281 4.3 7.0 0.00 0.00 0.00 76 1018.0
20260506114403 35 265 4.3 5.2 0.00 0.00 0.00 77 1017.8
20260506113903 35 265 4.3 5.2 0.00 0.00 0.00 76 1017.7
20260506113403 35 265 2.6 5.2 0.00 0.00 0.00 77 1017.7
20260506112903 35 265 4.3 6.1 0.00 0.00 0.00 77 1017.8
20260506112403 35 277 4.3 5.2 0.00 0.00 0.00 77 1017.7
20260506111902 35 276 4.3 6.1 0.00 0.00 0.00 77 1017.7
20260506110903 35 273 4.3 5.2 0.00 0.00 0.00 77 1017.7
20260506105903 35 273 4.3 6.1 0.00 0.00 0.00 77 1017.5
20260506105403 35 275 4.3 7.0 0.00 0.00 0.00 78 1017.5
20260506104903 34 271 4.3 6.1 0.00 0.00 0.00 78 1017.5
20260506104403 34 268 5.2 7.0 0.00 0.00 0.00 78 1017.6
20260506103403 34 258 4.3 7.0 0.00 0.00 0.00 78 1017.5
20260506102903 33 266 5.2 7.0 0.00 0.00 0.00 78 1017.5
20260506102403 33 273 5.2 6.1 0.00 0.00 0.00 77 1017.4
20260506101903 33 273 4.3 6.1 0.00 0.00 0.00 77 1017.5
20260506101403 33 273 4.3 5.2 0.00 0.00 0.00 77 1017.3
20260506100903 33 273 2.6 5.2 0.00 0.00 0.00 76 1017.2
20260506100403 33 273 2.6 5.2 0.00 0.00 0.00 77 1017.1
20260506095903 33 273 4.3 6.1 0.00 0.00 0.00 76 1017.2
20260506095403 33 273 4.3 6.1 0.00 0.00 0.00 77 1017.4
20260506094903 33 270 4.3 6.1 0.00 0.00 0.00 77 1017.3
20260506094403 32 270 4.3 5.2 0.00 0.00 0.00 77 1017.2
20260506093903 33 270 5.2 6.1 0.00 0.00 0.00 76 1017.2
20260506093404 33 289 4.3 6.1 0.00 0.00 0.00 76 1017.2
20260506092903 33 294 4.3 6.1 0.00 0.00 0.00 76 1017.1
20260506092403 34 294 2.6 4.3 0.00 0.00 0.00 74 1016.8
20260506091903 34 294 1.7 2.6 0.00 0.00 0.00 74 1016.5
20260506091404 34 294 1.7 2.6 0.00 0.00 0.00 74 1016.5
20260506090903 34 294 1.7 2.6 0.00 0.00 0.00 75 1016.5
20260506090403 34 294 2.6 2.6 0.00 0.00 0.00 75 1016.7
20260506085903 34 294 2.6 2.6 0.00 0.00 0.00 75 1016.6
20260506085403 33 294 2.6 4.3 0.00 0.00 0.00 75 1016.6
20260506084903 33 294 2.6 4.3 0.00 0.00 0.00 75 1016.6
20260506083903 33 294 3.5 4.3 0.00 0.00 0.00 74 1016.8
20260506083403 33 294 2.6 4.3 0.00 0.00 0.00 74 1016.8
20260506082903 33 294 5.2 7.0 0.00 0.00 0.00 72 1016.8
20260506081403 34 324 5.2 7.0 0.00 0.00 0.00 72 1016.3
20260506080903 34 324 4.3 5.2 0.00 0.00 0.00 71 1016.1
20260506080403 34 324 4.3 5.2 0.00 0.00 0.00 69 1016.2
20260506073403 36 327 5.2 7.0 0.00 0.00 0.00 67 1016.2